Location: ??
(35.4032°N, 139.3073°E)
Time: 03:46:38
(UTC+00:00)

CZ-4C R/B - Pass Details

Date: 13 April 2024
Orbit: 530 x 1463 km, 63.4° (Epoch: 25 May)

Event Time Altitude Azimuth Distance (km) Brightness Sun altitude
Rises 12:43:03 0° 338° (NNW) 3,818 6.5 -37.0°
Reaches altitude 10° 12:46:00 10° 351° (N) 3,010 5.6 -37.4°
Enters shadow 12:51:37 27° 40° (NE) 2,215 4.3 -38.1°
